#�ϑ�����,���ϕ���,���ϕ���,�ő啗��,�ő啗����������,�ő�u�ԕ���,�ő�u�ԕ�����������
#(�N����),(m/s)   ,(16����),(m/s)   ,(16����)        ,(m/s)       ,(16����)            
2012/10/31 0:01,2,4,2,4,3.8,3
2012/10/31 0:02,2.2,3,2.2,4,6.5,1
2012/10/31 0:03,2.8,3,2.8,3,13.1,15
2012/10/31 0:04,3.2,2,3.2,2,9.2,16
2012/10/31 0:05,3.2,2,3.2,2,5.2,2
2012/10/31 0:06,3.1,1,3.2,2,3,2
2012/10/31 0:07,3.1,1,3.1,2,6.5,1
2012/10/31 0:08,3.3,1,3.3,1,8.9,3
2012/10/31 0:09,3.3,1,3.3,1,7.7,1
2012/10/31 0:10,3.4,1,3.4,1,5.7,1
2012/10/31 0:11,3.4,1,3.4,1,4.2,1
2012/10/31 0:12,3.3,1,3.4,1,2.9,3
2012/10/31 0:13,2.9,2,3.3,1,3.2,2
2012/10/31 0:14,2.6,2,2.9,1,4.7,14
2012/10/31 0:15,2.7,2,2.7,1,4.7,1
2012/10/31 0:16,2.6,2,2.7,1,2.9,2
2012/10/31 0:17,2.4,2,2.7,1,1.9,2
2012/10/31 0:18,2,1,2.4,1,0.9,14
2012/10/31 0:19,1.7,1,2,1,0.6,6
2012/10/31 0:20,1.6,1,1.7,1,5.2,3
2012/10/31 0:21,1.7,1,1.7,1,5.5,2
2012/10/31 0:22,1.9,1,1.9,1,6.1,3
2012/10/31 0:23,2.1,1,2.1,2,6.5,3
2012/10/31 0:24,2,1,2.1,2,5.2,2
2012/10/31 0:25,2.2,2,2.2,2,6.5,3
2012/10/31 0:26,2.5,2,2.5,2,6.8,3
2012/10/31 0:27,2.6,2,2.6,2,5.2,4
2012/10/31 0:28,2.7,2,2.7,2,2.9,1
2012/10/31 0:29,2.8,2,2.8,2,2.5,2
2012/10/31 0:30,2.8,2,2.8,2,6,2
2012/10/31 0:31,2.9,2,2.9,2,5.7,1
2012/10/31 0:32,2.9,2,2.9,2,5.4,3
2012/10/31 0:33,2.8,2,2.9,2,5.2,3
2012/10/31 0:34,2.9,2,2.9,2,5.4,2
2012/10/31 0:35,2.8,2,3,2,4.8,3
2012/10/31 0:36,2.7,1,2.8,2,6,2
2012/10/31 0:37,2.9,1,2.9,2,7.2,16
2012/10/31 0:38,3.1,1,3.1,1,8.2,16
2012/10/31 0:39,3.5,2,3.5,2,6.7,3
2012/10/31 0:40,3.6,2,3.6,2,5.5,4
2012/10/31 0:41,3.6,2,3.6,2,6.4,3
2012/10/31 0:42,3.7,2,3.7,2,7,2
2012/10/31 0:43,3.6,2,3.7,2,5.1,2
2012/10/31 0:44,3.6,2,3.6,2,5.7,3
2012/10/31 0:45,3.6,2,3.6,2,4.8,3
2012/10/31 0:46,3.3,2,3.6,2,2.4,1
2012/10/31 0:47,3.1,2,3.3,2,2.2,2
2012/10/31 0:48,2.9,3,3.1,2,3,6
2012/10/31 0:49,2.8,3,2.9,2,4.9,5
2012/10/31 0:50,2.7,3,2.8,2,4.8,4
2012/10/31 0:51,2.5,3,2.7,2,3,5
2012/10/31 0:52,2.4,3,2.5,2,6,3
2012/10/31 0:53,2.6,3,2.6,2,8.7,3
2012/10/31 0:54,2.6,3,2.7,2,4.2,3
2012/10/31 0:55,2.5,3,2.6,2,2.2,16
2012/10/31 0:56,2.5,3,2.5,2,2.6,16
2012/10/31 0:57,2.4,3,2.5,2,1.6,16
2012/10/31 0:58,2.3,3,2.4,3,0.6,3
2012/10/31 0:59,2,3,2.2,3,0.5,3
2012/10/31 1:00,1.6,2,1.9,3,1.4,5
2012/10/31 1:01,1.5,3,1.6,3,0.8,5
2012/10/31 1:02,1.3,4,1.5,3,1.4,7
2012/10/31 1:03,0.8,4,1.3,3,1.4,4
2012/10/31 1:04,0.6,4,0.8,3,1.4,16
2012/10/31 1:05,0.7,3,0.7,3,5.7,1
2012/10/31 1:06,0.7,4,0.7,3,3.1,16
2012/10/31 1:07,0.7,4,0.7,3,0.6,12
2012/10/31 1:08,0.7,4,0.7,3,1.8,10
2012/10/31 1:09,0.8,3,0.8,3,2.1,14
2012/10/31 1:10,0.9,2,0.9,2,3.9,15
2012/10/31 1:11,1.1,1,1.1,3,6.1,16
2012/10/31 1:12,1.5,1,1.5,1,6.9,1
2012/10/31 1:13,1.9,1,1.9,1,8.7,1
2012/10/31 1:14,2.2,16,2.2,16,8.2,15
2012/10/31 1:15,2.5,16,2.5,16,10.8,16
2012/10/31 1:16,2.7,16,2.7,16,6.3,15
2012/10/31 1:17,2.8,1,2.8,1,2.9,16
2012/10/31 1:18,2.8,1,2.8,1,3.1,1
2012/10/31 1:19,2.9,1,2.9,1,1.9,3
2012/10/31 1:20,2.8,1,2.8,1,1.8,7
2012/10/31 1:21,2.7,1,2.8,1,7.4,2
2012/10/31 1:22,2.5,1,2.7,1,7.1,16
2012/10/31 1:23,2.1,1,2.5,1,2.2,5
2012/10/31 1:24,2,1,2.2,1,5.6,16
2012/10/31 1:25,1.8,1,2,1,6.8,1
2012/10/31 1:26,2,1,2,1,11.6,16
2012/10/31 1:27,2.4,1,2.4,1,10.9,16
2012/10/31 1:28,2.5,1,2.5,1,5.8,2
2012/10/31 1:29,2.5,1,2.6,1,4.2,1
2012/10/31 1:30,2.7,1,2.7,1,5.4,3
2012/10/31 1:31,2.8,1,2.8,1,8.6,1
2012/10/31 1:32,2.8,1,2.8,1,6.9,16
2012/10/31 1:33,2.9,16,2.9,1,4.1,15
2012/10/31 1:34,3.1,16,3.1,16,10,15
2012/10/31 1:35,3.3,1,3.4,1,10.8,14
2012/10/31 1:36,3.1,16,3.3,1,8.2,15
2012/10/31 1:37,3,16,3.1,1,7.1,16
2012/10/31 1:38,3.4,16,3.4,1,11.4,16
2012/10/31 1:39,3.8,16,3.8,16,9.4,15
2012/10/31 1:40,3.8,16,3.8,16,4.9,2
2012/10/31 1:41,3.8,16,3.8,16,5.1,1
2012/10/31 1:42,3.9,16,3.9,16,10.1,16
2012/10/31 1:43,4.1,1,4.1,1,9.2,1
2012/10/31 1:44,4.2,1,4.2,1,9.1,16
2012/10/31 1:45,4,16,4.2,1,6.8,16
2012/10/31 1:46,3.7,16,4,1,5.5,15
2012/10/31 1:47,3.7,1,3.7,1,7.1,2
2012/10/31 1:48,3.5,1,3.7,1,8.1,16
2012/10/31 1:49,3.4,1,3.5,1,7.5,1
2012/10/31 1:50,3.5,1,3.5,1,5.8,15
2012/10/31 1:51,3.4,1,3.5,1,4.4,3
2012/10/31 1:52,3.2,1,3.5,1,4.4,1
2012/10/31 1:53,3,1,3.2,1,3.8,1
2012/10/31 1:54,2.7,1,3,1,3.3,8
2012/10/31 1:55,2.6,1,2.7,16,6.1,2
2012/10/31 1:56,2.6,1,2.6,1,3,11
2012/10/31 1:57,2.5,16,2.6,1,4.7,12
2012/10/31 1:58,2.8,16,2.8,1,11.4,16
2012/10/31 1:59,2.6,16,2.7,1,7.5,2
2012/10/31 2:00,2.7,16,2.7,1,7.6,1
2012/10/31 2:01,3,16,3,1,10.5,16
2012/10/31 2:02,3.4,16,3.4,15,9.3,15
2012/10/31 2:03,3.7,16,3.7,16,10,1
2012/10/31 2:04,4,16,4,16,8.7,16
2012/10/31 2:05,4.3,16,4.3,16,8.1,16
2012/10/31 2:06,4.2,16,4.3,16,3.2,2
2012/10/31 2:07,4.2,16,4.2,16,5.2,15
2012/10/31 2:08,3.8,16,4.1,16,5.5,2
2012/10/31 2:09,3.7,16,3.8,16,4.2,12
2012/10/31 2:10,3.4,16,3.7,16,3.8,16
2012/10/31 2:11,3.3,15,3.4,16,7.5,15
2012/10/31 2:12,3.4,15,3.4,16,9.3,16
2012/10/31 2:13,3.3,15,3.5,16,13.4,16
2012/10/31 2:14,3.3,16,3.3,16,7.2,16
2012/10/31 2:15,3.2,16,3.2,16,9.9,16
2012/10/31 2:16,3.6,16,3.6,16,10.3,16
2012/10/31 2:17,3.8,16,3.8,16,11,1
2012/10/31 2:18,4.2,16,4.2,16,11.5,1
2012/10/31 2:19,4.6,16,4.6,16,8.4,16
2012/10/31 2:20,4.8,16,4.8,16,6.7,1
2012/10/31 2:21,4.7,16,4.8,16,8.2,1
2012/10/31 2:22,4.9,16,4.9,16,13.8,15
2012/10/31 2:23,5,16,5,16,10,16
2012/10/31 2:24,5.3,16,5.3,16,11.1,16
2012/10/31 2:25,5.5,16,5.5,16,11.5,15
2012/10/31 2:26,5.7,16,5.7,16,13.2,16
2012/10/31 2:27,5.8,16,5.8,16,12.6,1
2012/10/31 2:28,5.8,16,5.8,16,9,16
2012/10/31 2:29,5.8,16,5.8,16,10.3,16
2012/10/31 2:30,5.6,16,5.8,16,6,16
2012/10/31 2:31,5.6,16,5.7,16,6.5,1
2012/10/31 2:32,5.3,16,5.6,16,12.2,1
2012/10/31 2:33,5.5,16,5.5,16,12.6,16
2012/10/31 2:34,5.2,16,5.5,16,8.3,16
2012/10/31 2:35,5,16,5.2,16,6.7,16
2012/10/31 2:36,4.8,16,5,16,8.7,2
2012/10/31 2:37,4.8,16,4.8,16,15.3,16
2012/10/31 2:38,5.2,16,5.2,16,15.2,16
2012/10/31 2:39,5.1,16,5.2,16,9.5,16
2012/10/31 2:40,5.5,16,5.5,16,12.6,16
2012/10/31 2:41,5.8,16,5.8,16,11.5,3
2012/10/31 2:42,6.1,16,6.1,16,13.5,16
2012/10/31 2:43,5.9,16,6.1,16,10,16
2012/10/31 2:44,6,16,6,16,11.6,1
2012/10/31 2:45,6.2,16,6.2,16,11.8,2
2012/10/31 2:46,6.3,16,6.3,16,10.6,16
2012/10/31 2:47,6.1,16,6.3,16,8.5,16
2012/10/31 2:48,5.7,16,6,16,11.6,15
2012/10/31 2:49,5.9,16,5.9,16,10.5,1
2012/10/31 2:50,5.7,16,5.9,16,6.9,15
2012/10/31 2:51,5.2,16,5.7,16,3.8,16
2012/10/31 2:52,4.9,16,5.3,16,10.2,15
2012/10/31 2:53,5.1,16,5.1,16,10.5,16
2012/10/31 2:54,4.9,16,5,16,7.8,16
2012/10/31 2:55,4.7,16,4.9,16,7.5,16
2012/10/31 2:56,4.2,16,4.6,16,3.3,14
2012/10/31 2:57,4.2,16,4.3,16,9.7,2
2012/10/31 2:58,4.2,16,4.2,16,9,1
2012/10/31 2:59,4.1,16,4.1,16,10,1
2012/10/31 3:00,4,16,4.1,16,10.3,1
2012/10/31 3:01,4.1,16,4.1,16,7.1,16
2012/10/31 3:02,4,16,4.2,16,8.4,1
2012/10/31 3:03,3.6,16,4,16,4.9,16
2012/10/31 3:04,3.7,16,3.7,16,8.5,16
2012/10/31 3:05,3.7,16,3.7,16,5,15
2012/10/31 3:06,3.8,16,3.8,16,3.7,14
2012/10/31 3:07,3.6,16,3.8,16,3.8,14
2012/10/31 3:08,3.4,15,3.7,16,5.1,11
2012/10/31 3:09,3.3,15,3.4,16,4.8,10
2012/10/31 3:10,3.1,14,3.2,16,3.5,11
2012/10/31 3:11,2.7,14,3.1,16,2.6,7
2012/10/31 3:12,2.5,14,2.7,16,1.5,3
2012/10/31 3:13,2.3,14,2.5,16,1.8,13
2012/10/31 3:14,2,14,2.3,16,3.1,13
2012/10/31 3:15,1.9,14,2,16,3.6,1
2012/10/31 3:16,1.8,14,1.8,16,3.8,13
2012/10/31 3:17,1.8,14,1.8,16,3.9,12
2012/10/31 3:18,1.8,14,1.8,15,4.1,11
2012/10/31 3:19,1.6,14,1.8,14,3.5,11
2012/10/31 3:20,1.9,16,1.9,14,5.2,3
2012/10/31 3:21,1.9,16,1.9,14,3.2,3
2012/10/31 3:22,2.1,15,2.1,14,3.2,1
2012/10/31 3:23,2.1,15,2.1,14,2.7,2
2012/10/31 3:24,2,15,2.1,15,1.3,14
2012/10/31 3:25,1.9,15,2,15,2.5,1
2012/10/31 3:26,2.1,16,2.1,15,6.8,1
2012/10/31 3:27,2,16,2.1,15,5.2,1
2012/10/31 3:28,2.1,1,2.1,15,7.6,16
2012/10/31 3:29,2.3,1,2.3,1,9.8,2
2012/10/31 3:30,2.5,1,2.5,1,9.1,16
2012/10/31 3:31,2.6,16,2.6,16,5.4,1
2012/10/31 3:32,2.7,1,2.7,16,7.8,2
2012/10/31 3:33,3,16,3,16,11.1,16
2012/10/31 3:34,3.2,1,3.2,1,7.1,15
2012/10/31 3:35,3.4,1,3.4,1,4.8,1
2012/10/31 3:36,3.3,16,3.4,1,4.5,15
2012/10/31 3:37,3.5,16,3.5,16,7,16
2012/10/31 3:38,3.3,16,3.5,16,4.4,16
2012/10/31 3:39,3.2,16,3.4,16,6.1,2
2012/10/31 3:40,3.1,16,3.2,16,7.6,15
2012/10/31 3:41,3.1,16,3.2,16,6.5,15
2012/10/31 3:42,3,16,3.1,16,4.1,2
2012/10/31 3:43,2.8,16,3,16,3.8,2
2012/10/31 3:44,2.7,16,2.8,16,4.5,1
2012/10/31 3:45,2.7,16,2.7,16,5.4,16
2012/10/31 3:46,2.7,16,2.8,16,4.7,1
2012/10/31 3:47,2.3,16,2.7,16,2.6,3
2012/10/31 3:48,2.4,1,2.4,16,3.2,2
2012/10/31 3:49,2.3,16,2.4,16,3,12
2012/10/31 3:50,2.1,16,2.2,16,4.8,11
2012/10/31 3:51,2.3,16,2.3,16,7.1,3
2012/10/31 3:52,2.3,16,2.3,16,4.3,16
2012/10/31 3:53,2.4,16,2.4,16,5.1,16
2012/10/31 3:54,2.5,15,2.5,16,8.4,15
2012/10/31 3:55,2.6,16,2.6,16,9,2
2012/10/31 3:56,2.7,16,2.7,16,9.3,1
2012/10/31 3:57,3.3,16,3.3,16,12.3,1
2012/10/31 3:58,3.6,16,3.6,16,7.7,15
2012/10/31 3:59,3.8,16,3.8,16,7.7,16
2012/10/31 4:00,3.9,16,3.9,16,5.1,16
2012/10/31 4:01,3.6,16,3.8,16,3.2,14
2012/10/31 4:02,3.5,16,3.5,16,6.5,1
2012/10/31 4:03,3.4,16,3.5,16,4.1,4
2012/10/31 4:04,3.2,16,3.4,16,3.2,2
2012/10/31 4:05,3.2,16,3.3,16,5.1,15
2012/10/31 4:06,2.9,16,3.1,16,2.2,1
2012/10/31 4:07,2.5,16,2.9,16,4.2,16
2012/10/31 4:08,2.2,16,2.5,16,5.1,16
2012/10/31 4:09,2,16,2.2,16,4.2,16
2012/10/31 4:10,1.9,16,1.9,16,2.2,6
2012/10/31 4:11,1.9,16,2,16,3.7,16
2012/10/31 4:12,1.9,16,1.9,16,2.7,15
2012/10/31 4:13,2,16,2,16,3,13
2012/10/31 4:14,2,15,2,16,2,13
2012/10/31 4:15,1.8,15,2,16,2,16
2012/10/31 4:16,1.8,14,1.8,16,2.4,14
2012/10/31 4:17,1.7,14,1.8,16,2.4,11
2012/10/31 4:18,1.6,14,1.7,16,1.5,12
2012/10/31 4:19,1.4,13,1.6,16,0.8,12
2012/10/31 4:20,1.4,13,1.4,16,1.6,15
2012/10/31 4:21,1.3,13,1.4,16,2.1,14
2012/10/31 4:22,1.2,13,1.3,16,2,15
2012/10/31 4:23,1.1,13,1.2,15,1.8,13
2012/10/31 4:24,1.1,13,1.1,15,2,14
2012/10/31 4:25,1.2,13,1.2,15,2.9,15
2012/10/31 4:26,1.2,13,1.2,14,2.4,11
2012/10/31 4:27,1.1,13,1.1,14,3.3,5
2012/10/31 4:28,1.3,13,1.3,14,4.7,16
2012/10/31 4:29,1.4,14,1.4,13,4.2,16
2012/10/31 4:30,1.6,14,1.6,14,3.3,11
2012/10/31 4:31,1.7,14,1.7,14,3.5,11
2012/10/31 4:32,1.6,13,1.7,14,2.1,15
2012/10/31 4:33,1.7,14,1.7,14,2.6,16
2012/10/31 4:34,1.6,14,1.7,14,1.5,15
2012/10/31 4:35,1.6,14,1.7,14,1.4,16
2012/10/31 4:36,1.6,15,1.6,14,2.1,15
2012/10/31 4:37,1.5,15,1.6,14,1.6,15
2012/10/31 4:38,1.4,15,1.5,14,2.4,5
2012/10/31 4:39,1.4,14,1.4,14,3,10
2012/10/31 4:40,1.4,14,1.4,14,3,11
2012/10/31 4:41,1.4,14,1.4,14,3.1,9
2012/10/31 4:42,1.4,14,1.4,13,4.5,2
2012/10/31 4:43,1.5,14,1.5,14,4.7,15
2012/10/31 4:44,1.6,14,1.6,14,3.9,1
2012/10/31 4:45,1.7,14,1.7,14,4.3,15
2012/10/31 4:46,1.7,14,1.8,14,3.2,16
2012/10/31 4:47,1.8,14,1.8,14,3.5,15
2012/10/31 4:48,1.9,14,1.9,14,3.1,3
2012/10/31 4:49,1.8,15,1.9,14,1.9,3
2012/10/31 4:50,1.7,16,1.8,14,1.5,15
2012/10/31 4:51,1.6,1,1.6,14,1.4,3
2012/10/31 4:52,1.5,1,1.6,14,0.8,3
2012/10/31 4:53,1.3,1,1.5,14,2.6,10
2012/10/31 4:54,1.3,1,1.4,14,2.6,10
2012/10/31 4:55,1.2,1,1.3,14,2.6,9
2012/10/31 4:56,1.1,16,1.2,14,1.6,10
2012/10/31 4:57,1.1,4,1.2,14,1.5,9
2012/10/31 4:58,1,10,1.1,14,1.6,9
2012/10/31 4:59,1,10,1,15,1.5,8
2012/10/31 5:00,1,10,1,16,2,9
2012/10/31 5:01,0.9,10,1,1,1.5,9
2012/10/31 5:02,1.1,10,1.1,1,2.9,9
2012/10/31 5:03,1.2,10,1.2,1,2.7,9
2012/10/31 5:04,1.2,10,1.2,1,2.7,9
2012/10/31 5:05,1.3,9,1.3,9,2.7,8
2012/10/31 5:06,1.4,9,1.4,9,2.5,9
2012/10/31 5:07,1.5,9,1.5,9,3,9
2012/10/31 5:08,1.7,9,1.7,9,3.1,10
2012/10/31 5:09,1.9,10,1.9,10,3.2,11
2012/10/31 5:10,2,10,2,10,2.9,11
2012/10/31 5:11,2.2,10,2.2,10,2.6,11
2012/10/31 5:12,2.3,10,2.3,10,3.1,11
2012/10/31 5:13,2.3,10,2.3,10,3.3,11
2012/10/31 5:14,2.4,10,2.4,10,3,12
2012/10/31 5:15,2.5,11,2.5,11,3.7,11
2012/10/31 5:16,2.6,11,2.6,11,4.4,10
2012/10/31 5:17,2.7,11,2.7,11,4.8,10
2012/10/31 5:18,2.8,11,2.8,11,4.4,9
2012/10/31 5:19,2.8,11,2.8,11,3.6,9
2012/10/31 5:20,2.8,11,2.8,11,3.6,11
2012/10/31 5:21,2.9,11,2.9,11,3.5,11
2012/10/31 5:22,2.9,11,2.9,11,3.5,11
2012/10/31 5:23,2.9,11,2.9,11,3.6,11
2012/10/31 5:24,2.9,11,3,11,3.5,11
2012/10/31 5:25,2.8,11,2.9,11,2.2,10
2012/10/31 5:26,2.7,11,2.8,11,2.9,10
2012/10/31 5:27,2.5,11,2.7,11,3,10
2012/10/31 5:28,2.4,11,2.5,11,2,11
2012/10/31 5:29,2.3,11,2.3,11,2.2,11
2012/10/31 5:30,2.2,11,2.2,11,2.1,10
2012/10/31 5:31,2.1,11,2.2,11,2.7,12
2012/10/31 5:32,1.9,11,2.1,11,2.2,10
2012/10/31 5:33,1.8,11,1.9,11,2.2,12
2012/10/31 5:34,1.7,11,1.8,11,2.1,12
2012/10/31 5:35,1.7,11,1.7,11,2.6,12
2012/10/31 5:36,1.7,11,1.7,11,3,11
2012/10/31 5:37,1.7,11,1.7,11,3,10
2012/10/31 5:38,1.6,11,1.7,11,2,10
2012/10/31 5:39,1.6,11,1.6,11,1.6,10
2012/10/31 5:40,1.4,11,1.5,11,0.8,15
2012/10/31 5:41,1.3,11,1.4,11,0.8,12
2012/10/31 5:42,1.2,12,1.3,11,0.3,14
2012/10/31 5:43,1,11,1.1,11,0.5,5
2012/10/31 5:44,0.9,11,1,11,0.5,6
2012/10/31 5:45,0.8,10,0.9,11,1.3,8
2012/10/31 5:46,0.7,10,0.8,11,1.1,8
2012/10/31 5:47,0.6,10,0.7,11,1.1,9
2012/10/31 5:48,0.5,10,0.5,11,0.6,11
2012/10/31 5:49,0.4,10,0.5,11,1,10
2012/10/31 5:50,0.5,10,0.5,11,1,10
2012/10/31 5:51,0.5,10,0.5,11,0.9,13
2012/10/31 5:52,0.6,10,0.6,12,1.5,13
2012/10/31 5:53,0.7,10,0.7,11,1.9,14
2012/10/31 5:54,0.8,11,0.8,11,1.6,11
2012/10/31 5:55,0.9,11,0.9,11,1.8,13
2012/10/31 5:56,0.9,11,0.9,11,1.8,13
2012/10/31 5:57,0.9,12,0.9,11,1.5,11
2012/10/31 5:58,1.1,11,1.1,11,2.4,9
2012/10/31 5:59,1.2,11,1.2,11,2.1,10
2012/10/31 6:00,1.3,11,1.3,11,2.1,12
2012/10/31 6:01,1.3,11,1.3,11,1.6,10
2012/10/31 6:02,1.3,11,1.3,11,1.3,9
2012/10/31 6:03,1.2,11,1.3,11,0.6,13
2012/10/31 6:04,1.1,11,1.2,11,0.5,16
2012/10/31 6:05,1,11,1.1,11,1.5,15
2012/10/31 6:06,1,12,1,11,1.4,13
2012/10/31 6:07,1,12,1,11,1,13
2012/10/31 6:08,0.8,12,1,11,0.5,11
2012/10/31 6:09,0.7,12,0.8,11,1.5,9
2012/10/31 6:10,0.7,12,0.7,11,1.5,9
2012/10/31 6:11,0.6,12,0.6,11,0.9,11
2012/10/31 6:12,0.5,11,0.6,11,0.1,12
2012/10/31 6:13,0.5,11,0.5,11,0.8,11
2012/10/31 6:14,0.6,11,0.6,11,1.3,14
2012/10/31 6:15,0.5,11,0.6,11,1.3,14
2012/10/31 6:16,0.5,11,0.5,12,1,16
2012/10/31 6:17,0.6,12,0.6,12,1.5,15
2012/10/31 6:18,0.7,13,0.7,12,1.9,15
2012/10/31 6:19,0.7,14,0.7,12,1.3,16
2012/10/31 6:20,0.7,14,0.7,12,1.3,16
2012/10/31 6:21,0.7,15,0.7,12,1,15
2012/10/31 6:22,0.8,15,0.8,15,1,15
2012/10/31 6:23,0.8,15,0.8,15,1.6,9
2012/10/31 6:24,0.8,15,0.8,15,1.1,2
2012/10/31 6:25,0.8,15,0.8,15,2.4,16
2012/10/31 6:26,0.9,15,0.9,15,1.6,15
2012/10/31 6:27,0.9,15,0.9,15,1.8,14
2012/10/31 6:28,0.8,14,0.8,15,1.4,13
2012/10/31 6:29,0.8,13,0.8,15,1,12
2012/10/31 6:30,0.8,13,0.8,15,1.6,10
2012/10/31 6:31,0.9,12,0.9,15,1.6,10
2012/10/31 6:32,0.9,11,0.9,15,1.9,9
2012/10/31 6:33,0.9,11,0.9,15,1.6,10
2012/10/31 6:34,0.9,11,0.9,15,0.3,6
2012/10/31 6:35,0.8,11,0.9,15,1,4
2012/10/31 6:36,0.7,10,0.8,15,0.5,3
2012/10/31 6:37,0.6,9,0.7,12,0.1,3
2012/10/31 6:38,0.5,7,0.6,12,0.1,4
2012/10/31 6:39,0.5,6,0.5,12,0,5
2012/10/31 6:40,0.4,6,0.5,12,0.6,12
2012/10/31 6:41,0.3,5,0.4,12,1,14
2012/10/31 6:42,0.3,3,0.3,11,2.4,16
2012/10/31 6:43,0.5,2,0.5,11,2.6,16
2012/10/31 6:44,0.7,1,0.7,11,3.2,16
2012/10/31 6:45,0.8,16,0.8,11,2.5,16
2012/10/31 6:46,0.9,16,0.9,16,1.5,15
2012/10/31 6:47,1,15,1,15,0.8,14
2012/10/31 6:48,1,15,1,15,0.6,13
2012/10/31 6:49,1,15,1,15,0.1,16
2012/10/31 6:50,1,15,1,15,0.9,14
2012/10/31 6:51,1,15,1,15,1.1,16
2012/10/31 6:52,1.1,15,1.1,15,2.5,15
2012/10/31 6:53,1,15,1.1,15,2.7,16
2012/10/31 6:54,0.9,15,1,15,2.2,14
2012/10/31 6:55,0.9,15,0.9,15,2.1,14
2012/10/31 6:56,1,15,1,15,1.6,14
2012/10/31 6:57,1,15,1,15,1,13
2012/10/31 6:58,1,14,1,15,1,13
2012/10/31 6:59,1.1,14,1.1,15,0.8,13
2012/10/31 7:00,1.1,15,1.1,15,1.3,1
2012/10/31 7:01,1.1,15,1.1,15,1.5,1
2012/10/31 7:02,1,15,1.1,15,1.1,2
2012/10/31 7:03,0.9,15,1,14,0.5,1
2012/10/31 7:04,0.8,15,0.9,14,1.3,15
2012/10/31 7:05,0.7,15,0.8,14,1.5,15
2012/10/31 7:06,0.7,15,0.7,14,1.5,15
2012/10/31 7:07,0.7,15,0.7,14,0.8,16
2012/10/31 7:08,0.7,16,0.7,14,0.6,15
2012/10/31 7:09,0.6,16,0.6,14,0.3,16
2012/10/31 7:10,0.6,16,0.6,15,1.5,8
2012/10/31 7:11,0.5,16,0.6,15,1.3,9
2012/10/31 7:12,0.6,16,0.6,15,1.5,6
2012/10/31 7:13,0.7,16,0.7,15,1.4,6
2012/10/31 7:14,0.6,16,0.7,15,0.4,13
2012/10/31 7:15,0.5,3,0.6,15,0.6,9
2012/10/31 7:16,0.5,7,0.5,15,0.6,9
2012/10/31 7:17,0.4,7,0.5,15,0.3,9
2012/10/31 7:18,0.4,8,0.4,16,0.1,10
2012/10/31 7:19,0.4,8,0.4,16,0.4,10
2012/10/31 7:20,0.4,9,0.4,16,0.5,10
2012/10/31 7:21,0.4,9,0.4,16,0.4,10
2012/10/31 7:22,0.3,9,0.4,16,0.6,9
2012/10/31 7:23,0.2,10,0.3,16,0.9,9
2012/10/31 7:24,0.3,9,0.3,1,0.9,9
2012/10/31 7:25,0.3,10,0.3,4,0.8,9
2012/10/31 7:26,0.3,10,0.3,7,0.6,10
2012/10/31 7:27,0.3,10,0.3,7,1,11
2012/10/31 7:28,0.4,10,0.4,8,1,10
2012/10/31 7:29,0.4,10,0.4,8,0.8,12
2012/10/31 7:30,0.5,10,0.5,10,1.1,10
2012/10/31 7:31,0.5,11,0.5,10,1.3,13
2012/10/31 7:32,0.6,11,0.6,11,1.6,13
2012/10/31 7:33,0.7,11,0.7,11,1.5,12
2012/10/31 7:34,0.7,11,0.7,11,1.5,12
2012/10/31 7:35,0.8,11,0.8,11,1.8,10
2012/10/31 7:36,1,11,1,11,2.7,9
2012/10/31 7:37,1,11,1,11,2,8
2012/10/31 7:38,1,11,1,11,1.6,11
2012/10/31 7:39,1,11,1,11,1.8,9
2012/10/31 7:40,1.1,11,1.1,12,1.9,13
2012/10/31 7:41,1.1,11,1.1,12,1.5,12
2012/10/31 7:42,1.1,11,1.1,12,1.6,12
2012/10/31 7:43,1.1,11,1.1,12,1.1,10
2012/10/31 7:44,1,11,1.1,12,1.1,13
2012/10/31 7:45,1,12,1,12,0.9,10
2012/10/31 7:46,0.9,12,0.9,12,1.3,12
2012/10/31 7:47,0.9,12,0.9,12,2,11
2012/10/31 7:48,0.9,12,1,12,1.8,11
2012/10/31 7:49,1,12,1,12,1,10
2012/10/31 7:50,0.9,12,1,11,2,13
2012/10/31 7:51,0.9,12,1,11,1.6,12
2012/10/31 7:52,0.9,12,0.9,11,1.4,12
2012/10/31 7:53,0.9,12,0.9,11,1.3,10
2012/10/31 7:54,0.9,11,0.9,11,1.4,8
2012/10/31 7:55,1,11,1,12,0.8,9
2012/10/31 7:56,1,11,1,12,1.4,11
2012/10/31 7:57,1,11,1,12,1.9,9
2012/10/31 7:58,1,11,1,12,2.4,9
2012/10/31 7:59,1.1,10,1.1,10,1.9,11
2012/10/31 8:00,1.1,10,1.1,10,2.6,9
2012/10/31 8:01,1.2,10,1.2,10,2.2,10
2012/10/31 8:02,1.2,10,1.2,10,2,8
2012/10/31 8:03,1.3,9,1.3,9,2,9
2012/10/31 8:04,1.2,9,1.3,9,1.8,9
2012/10/31 8:05,1.3,9,1.3,9,2,9
2012/10/31 8:06,1.3,9,1.4,9,2,8
2012/10/31 8:07,1.3,9,1.4,9,1.6,8
2012/10/31 8:08,1.3,9,1.3,9,2,9
2012/10/31 8:09,1.3,9,1.3,9,2,10
2012/10/31 8:10,1.3,9,1.3,9,2.1,8
2012/10/31 8:11,1.3,9,1.3,9,2,9
2012/10/31 8:12,1.3,9,1.3,9,2.4,9
2012/10/31 8:13,1.3,9,1.3,9,2,8
2012/10/31 8:14,1.3,9,1.3,9,1.5,10
2012/10/31 8:15,1.2,9,1.3,9,1.5,8
2012/10/31 8:16,1.2,9,1.2,9,1.4,10
2012/10/31 8:17,1.1,9,1.2,9,1,9
2012/10/31 8:18,1,9,1.1,9,1.5,10
2012/10/31 8:19,1,9,1,9,1,9
2012/10/31 8:20,0.9,9,1,9,1.9,10
2012/10/31 8:21,0.8,9,0.9,9,1.8,10
2012/10/31 8:22,0.8,10,0.8,9,2.2,8
2012/10/31 8:23,0.8,9,0.8,9,2.7,8
2012/10/31 8:24,0.9,9,0.9,9,2.9,8
2012/10/31 8:25,0.9,9,1,9,2.2,8
2012/10/31 8:26,1,9,1,9,1.6,9
2012/10/31 8:27,1,9,1,9,2.2,9
2012/10/31 8:28,1.1,9,1.1,9,2.5,10
2012/10/31 8:29,1.2,9,1.2,9,2.4,9
2012/10/31 8:30,1.2,9,1.2,9,1,10
2012/10/31 8:31,1.2,9,1.2,9,1,13
2012/10/31 8:32,1.1,9,1.2,9,0.9,12
2012/10/31 8:33,1.1,10,1.1,9,1.1,12
2012/10/31 8:34,1,10,1.1,9,1.5,12
2012/10/31 8:35,0.9,11,1,9,1.3,10
2012/10/31 8:36,0.9,11,0.9,9,1.9,14
2012/10/31 8:37,0.9,11,0.9,9,1.5,11
2012/10/31 8:38,0.9,12,0.9,9,1.8,12
2012/10/31 8:39,0.8,12,0.9,9,1.3,10
2012/10/31 8:40,0.8,12,0.8,9,1.8,13
2012/10/31 8:41,0.8,12,0.9,9,1.4,12
2012/10/31 8:42,0.8,12,0.8,9,0.5,13
2012/10/31 8:43,0.9,12,0.9,10,2,12
2012/10/31 8:44,0.9,12,0.9,10,2.1,11
2012/10/31 8:45,1,12,1,12,1.9,12
2012/10/31 8:46,1,12,1,12,1.6,12
2012/10/31 8:47,1,12,1,12,1.3,11
2012/10/31 8:48,1,12,1,12,1.9,12
2012/10/31 8:49,1,12,1,12,1.6,13
2012/10/31 8:50,1,12,1,12,0.9,13
2012/10/31 8:51,1,12,1,12,1.3,12
2012/10/31 8:52,1.1,12,1.1,12,1.1,11
2012/10/31 8:53,1,12,1.1,12,1.5,9
2012/10/31 8:54,0.9,12,1,12,3.1,9
2012/10/31 8:55,1,12,1,12,3,11
2012/10/31 8:56,1,12,1,12,2.4,11
2012/10/31 8:57,1.1,12,1.1,12,2.4,11
2012/10/31 8:58,1.1,11,1.1,12,2.2,9
2012/10/31 8:59,1.1,11,1.1,12,1.4,9
2012/10/31 9:00,1.1,11,1.1,12,2,11
2012/10/31 9:01,1.1,11,1.1,12,1.6,11
2012/10/31 9:02,1.2,11,1.2,11,3.1,10
2012/10/31 9:03,1.3,11,1.3,11,2.1,9
2012/10/31 9:04,1.2,11,1.3,11,0.9,11
2012/10/31 9:05,1.1,10,1.2,11,1.1,6
2012/10/31 9:06,1,10,1.1,11,2.5,11
2012/10/31 9:07,1,10,1,11,3.2,8
2012/10/31 9:08,1,10,1,11,2.7,8
2012/10/31 9:09,1.1,10,1.1,11,2.9,9
2012/10/31 9:10,1.1,9,1.1,11,1.8,8
2012/10/31 9:11,1.1,9,1.1,11,1.5,10
2012/10/31 9:12,1,9,1.1,11,1.4,10
2012/10/31 9:13,1,10,1,11,1,13
2012/10/31 9:14,1,9,1,11,0.9,10
2012/10/31 9:15,1.1,9,1.1,10,2,10
2012/10/31 9:16,1.1,9,1.1,10,1.8,8
2012/10/31 9:17,1.1,9,1.1,10,1.6,7
2012/10/31 9:18,1,9,1.1,10,1.9,8
2012/10/31 9:19,0.9,9,1,10,1.6,8
2012/10/31 9:20,0.9,9,0.9,9,1.5,8
2012/10/31 9:21,0.9,9,0.9,9,1.8,10
2012/10/31 9:22,0.9,9,0.9,9,2.1,8
2012/10/31 9:23,0.9,8,0.9,9,0.9,8
2012/10/31 9:24,1,9,1,9,2.2,9
2012/10/31 9:25,0.9,9,1,9,2,10
2012/10/31 9:26,0.9,9,0.9,9,2.6,8
2012/10/31 9:27,1,9,1,9,2.1,8
2012/10/31 9:28,1.1,9,1.1,9,2.4,9
2012/10/31 9:29,1,9,1.1,9,1.6,9
2012/10/31 9:30,1,9,1,9,1.5,7
2012/10/31 9:31,1.1,9,1.1,9,2.7,8
2012/10/31 9:32,1.2,8,1.2,8,3.7,8
2012/10/31 9:33,1.3,9,1.3,9,3.2,9
2012/10/31 9:34,1.3,9,1.3,9,3.2,9
2012/10/31 9:35,1.3,9,1.4,9,2.1,8
2012/10/31 9:36,1.2,9,1.3,9,0.8,14
2012/10/31 9:37,1.2,9,1.2,9,1.9,8
2012/10/31 9:38,1.2,9,1.2,9,2,7
2012/10/31 9:39,1.2,8,1.2,9,1.9,8
2012/10/31 9:40,1.3,8,1.3,9,2,8
2012/10/31 9:41,1.2,8,1.3,9,1.6,8
2012/10/31 9:42,1.1,8,1.2,9,1.3,4
2012/10/31 9:43,0.9,8,1.1,9,0.9,4
2012/10/31 9:44,0.8,7,0.9,9,1.5,6
2012/10/31 9:45,0.9,7,0.9,9,2.5,4
2012/10/31 9:46,1,7,1,8,1.5,5
2012/10/31 9:47,0.9,7,1,8,1.4,8
2012/10/31 9:48,0.9,7,0.9,8,2.1,7
2012/10/31 9:49,0.9,6,0.9,8,2,7
2012/10/31 9:50,0.9,6,0.9,8,2.2,7
2012/10/31 9:51,0.9,6,0.9,8,1.4,5
2012/10/31 9:52,0.9,6,0.9,8,1.9,6
2012/10/31 9:53,1,6,1,7,0.9,10
2012/10/31 9:54,1,7,1,7,2.1,10
2012/10/31 9:55,1,7,1,7,2.1,9
2012/10/31 9:56,1,7,1,7,2,8
2012/10/31 9:57,1,7,1,6,1.5,6
2012/10/31 9:58,0.9,7,1,6,0.5,5
2012/10/31 9:59,0.8,7,0.9,6,0.8,8
2012/10/31 10:00,0.8,7,0.8,6,1.4,6
2012/10/31 10:01,0.7,7,0.8,6,0.6,6
2012/10/31 10:02,0.7,7,0.7,6,1,5
2012/10/31 10:03,0.7,7,0.7,6,1.4,6
2012/10/31 10:04,0.7,7,0.7,7,1.3,7
2012/10/31 10:05,0.7,7,0.7,7,1.3,10
2012/10/31 10:06,0.6,7,0.7,7,2.9,9
2012/10/31 10:07,0.7,7,0.7,7,3.9,8
2012/10/31 10:08,0.9,8,0.9,7,3.5,8
2012/10/31 10:09,0.9,8,0.9,8,1.3,7
2012/10/31 10:10,0.9,8,0.9,8,2.1,8
2012/10/31 10:11,0.9,8,0.9,8,1,7
2012/10/31 10:12,0.9,8,0.9,8,0.8,8
2012/10/31 10:13,0.8,8,0.9,8,0.5,8
2012/10/31 10:14,0.7,9,0.8,8,0.5,13
2012/10/31 10:15,0.7,9,0.8,8,0.5,15
2012/10/31 10:16,0.6,8,0.7,8,0.5,1
2012/10/31 10:17,0.5,8,0.6,8,1.8,6
2012/10/31 10:18,0.5,5,0.5,8,2.7,3
2012/10/31 10:19,0.7,4,0.7,8,2.2,3
2012/10/31 10:20,0.7,3,0.7,8,2.1,3
2012/10/31 10:21,0.8,3,0.8,8,1.6,3
2012/10/31 10:22,0.8,2,0.9,8,1.1,3
2012/10/31 10:23,0.8,2,0.8,3,0.3,10
2012/10/31 10:24,0.9,2,0.9,3,0.9,9
2012/10/31 10:25,0.9,3,0.9,3,2.5,9
2012/10/31 10:26,1,3,1,3,2.2,8
2012/10/31 10:27,1.1,4,1.1,3,2.1,9
2012/10/31 10:28,1,4,1.1,3,2.2,7
2012/10/31 10:29,1,7,1,3,3.2,7
2012/10/31 10:30,0.9,8,1,3,3.2,8
2012/10/31 10:31,1,9,1,3,2.7,7
2012/10/31 10:32,1.1,9,1.1,3,2.7,8
2012/10/31 10:33,1.1,9,1.1,3,2.4,10
2012/10/31 10:34,1.2,9,1.2,9,3.2,8
2012/10/31 10:35,1.3,9,1.3,9,4.1,8
2012/10/31 10:36,1.4,9,1.4,9,3.2,8
2012/10/31 10:37,1.3,9,1.4,9,2.5,9
2012/10/31 10:38,1.5,9,1.5,9,3.3,9
2012/10/31 10:39,1.5,9,1.5,9,3.7,9
2012/10/31 10:40,1.5,9,1.6,9,2.6,12
2012/10/31 10:41,1.5,9,1.5,9,2.5,8
2012/10/31 10:42,1.4,9,1.5,9,1.8,7
2012/10/31 10:43,1.4,8,1.4,9,1.9,6
2012/10/31 10:44,1.3,9,1.4,9,0.8,12
2012/10/31 10:45,1.1,9,1.3,9,0.1,14
2012/10/31 10:46,0.9,10,1.1,9,1.1,11
2012/10/31 10:47,1,10,1,9,2.4,10
2012/10/31 10:48,0.9,10,1,9,3,9
2012/10/31 10:49,0.9,10,0.9,9,3.9,9
2012/10/31 10:50,0.9,9,0.9,9,2.5,9
2012/10/31 10:51,0.9,10,0.9,9,1.8,11
2012/10/31 10:52,0.9,10,0.9,9,1.1,14
2012/10/31 10:53,0.9,11,0.9,8,1.1,7
2012/10/31 10:54,1,10,1,9,2.6,8
2012/10/31 10:55,1.1,9,1.1,9,2.4,7
2012/10/31 10:56,1.2,9,1.2,9,2.9,7
2012/10/31 10:57,1.2,8,1.2,9,2.7,7
2012/10/31 10:58,1.3,9,1.3,8,3.8,8
2012/10/31 10:59,1.3,8,1.3,8,2.5,9
2012/10/31 11:00,1.2,8,1.2,8,1.8,8
2012/10/31 11:01,1.3,8,1.3,8,2,7